sat.trackr.live / text

‹ back to catalog

STARLINK-35967

NORAD 66634 · 2025-271T

PAYLOAD ACTIVE UNKNOWN

§ Identity

Operator
Country
US
Launch date
2025-11-23
Launch site
AFWTR
Launch vehicle
Mass (kg)
RCS (m²)

Purposes: comms

External: N2YO · Heavens-Above · Gunter

§ Orbital elements

Epoch: 2026-09-20T10:02:02.939712Z

Period
93.85 min
Inclination
53.1555°
Eccentricity
0.0001467
Mean motion
15.34394647 rev/d
Perigee alt
461.7 km
Apogee alt
463.7 km
Semi-major
6,840.9 km
B*
9.7214e-5
RAAN
310.2487°
Arg perigee
86.3379°
Mean anomaly
273.7791°
Rev number
4,740

§ Raw data

STARLINK-359671 66634U 25271T   26263.41808958  .00002909  00000+0  97214-4 0  99902 66634  53.1555 310.2487 0001467  86.3379 273.7791 15.34394647 47407

JSON: /api/v1/satellites/66634 · /tle

For live sub-satellite position, see the globe view (requires WebGL).

§ Visibility from observer

Set your observer location to see the next 7 days of passes ≥ 10°. The values pass through the URL so the page stays shareable.

No JS? Fill the form by hand. The geolocation button needs JavaScript.